QPF
0.00 0.00 0.01 0.02 0.03 0.10 0.16 0.17 0.15 0.11 0.09 0.08 0.08 0.08 0.07 0.06 0.05 0.04 0.02 0.01 0.00 0.00 0.00 0.00 0.00 0.00 0.00 0.00 0.00 0.00 0.00 0.01 0.01 0.01 0.01 0.01 0.00 0.00 0.00 0.00 0.00 0.00 0.00 0.00 0.00 0.00 0.00 0.00 0.00
0.00 0.01 0.01 0.03 0.07 0.15 0.17 0.12 0.10 0.12 0.13 0.12 0.15 0.13 0.11 0.04 0.02 0.02 0.01 0.01 0.00 0.00 0.00 0.00 0.00 0.00 0.00 0.00 0.00 0.01 0.01 0.01 0.01 0.01 0.01 0.01 0.01 0.01 0.01 0.00 0.00 0.00 0.00 0.00 0.00 0.00 0.00 0.00 0.00
0.00 0.01 0.01 0.03 0.09 0.17 0.17 0.08 0.07 0.12 0.20 0.19 0.22 0.13 0.11 0.04 0.02 0.02 0.02 0.01 0.01 0.00 0.00 0.00 0.00 0.00 0.00 0.00 0.00 0.01 0.01 0.01 0.01 0.01 0.01 0.01 0.01 0.01 0.01 0.01 0.00 0.00 0.00 0.00 0.00 0.00 0.00 0.00 0.01
0.00 0.01 0.02 0.04 0.06 0.08 0.06 0.04 0.05 0.09 0.15 0.16 0.20 0.17 0.12 0.07 0.07 0.04 0.03 0.02 0.01 0.00 0.00 0.00 0.00 0.00 0.00 0.00 0.00 0.01 0.01 0.01 0.01 0.01 0.01 0.01 0.01 0.01 0.01 0.01 0.00 0.00 0.00 0.00 0.00 0.00 0.00 0.00 0.01
0.00 0.01 0.02 0.02 0.03 0.03 0.02 0.03 0.05 0.07 0.13 0.18 0.13 0.13 0.15 0.12 0.08 0.05 0.03 0.02 0.01 0.01 0.01 0.01 0.01 0.00 0.00 0.00 0.00 0.00 0.01 0.01 0.01 0.01 0.01 0.01 0.01 0.01 0.01 0.01 0.01 0.01 0.01 0.01 0.00 0.00 0.00 0.00 0.00
0.00 0.00 0.01 0.01 0.01 0.00 0.01 0.01 0.05 0.08 0.13 0.21 0.18 0.11 0.16 0.15 0.07 0.05 0.03 0.03 0.02 0.02 0.02 0.01 0.01 0.01 0.01 0.01 0.00 0.00 0.00 0.00 0.01 0.01 0.01 0.01 0.01 0.01 0.01 0.01 0.01 0.01 0.00 0.00 0.00 0.00 0.00 0.00 0.00
0.00 0.00 0.00 0.00 0.00 0.00 0.00 0.01 0.04 0.06 0.12 0.29 0.26 0.18 0.24 0.21 0.12 0.09 0.07 0.05 0.04 0.07 0.10 0.04 0.02 0.01 0.01 0.01 0.01 0.00 0.00 0.00 0.00 0.01 0.01 0.01 0.01 0.01 0.01 0.01 0.01 0.01 0.01 0.01 0.00 0.00 0.00 0.00 0.00
0.00 0.00 0.00 0.00 0.00 0.00 0.01 0.01 0.02 0.05 0.12 0.24 0.19 0.19 0.30 0.28 0.18 0.15 0.10 0.09 0.10 0.15 0.14 0.05 0.02 0.01 0.01 0.01 0.01 0.01 0.01 0.01 0.01 0.01 0.01 0.01 0.01 0.02 0.03 0.03 0.03 0.03 0.02 0.01 0.01 0.00 0.00 0.00 0.00
0.00 0.00 0.00 0.00 0.00 0.00 0.00 0.01 0.02 0.09 0.22 0.36 0.34 0.21 0.21 0.18 0.20 0.18 0.13 0.21 0.16 0.17 0.14 0.03 0.01 0.01 0.01 0.02 0.02 0.02 0.01 0.02 0.02 0.01 0.01 0.01 0.02 0.04 0.07 0.08 0.07 0.05 0.04 0.03 0.03 0.02 0.01 0.01 0.01
0.00 0.00 0.00 0.00 0.00 0.00 0.00 0.00 0.01 0.08 0.27 0.37 0.29 0.22 0.20 0.22 0.23 0.24 0.17 0.19 0.16 0.08 0.07 0.05 0.02 0.01 0.02 0.03 0.04 0.05 0.05 0.05 0.04 0.04 0.04 0.04 0.05 0.07 0.10 0.12 0.12 0.11 0.08 0.06 0.06 0.06 0.05 0.03 0.01
0.00 0.00 0.00 0.00 0.00 0.00 0.00 0.00 0.01 0.11 0.25 0.40 0.56 0.51 0.39 0.35 0.39 0.37 0.26 0.19 0.11 0.06 0.05 0.06 0.05 0.05 0.03 0.04 0.05 0.08 0.10 0.13 0.09 0.08 0.08 0.07 0.07 0.08 0.08 0.09 0.12 0.14 0.12 0.09 0.10 0.09 0.07 0.05 0.04
0.00 0.00 0.00 0.00 0.00 0.00 0.02 0.02 0.01 0.06 0.15 0.28 0.48 0.63 0.60 0.52 0.60 0.52 0.43 0.36 0.18 0.10 0.07 0.09 0.08 0.05 0.05 0.05 0.04 0.06 0.08 0.17 0.13 0.11 0.14 0.07 0.06 0.07 0.05 0.09 0.13 0.13 0.15 0.16 0.16 0.14 0.09 0.08 0.08
0.00 0.00 0.00 0.00 0.00 0.00 0.01 0.02 0.03 0.07 0.11 0.20 0.34 0.45 0.52 0.56 0.69 0.60 0.54 0.47 0.28 0.18 0.12 0.11 0.12 0.10 0.08 0.07 0.07 0.07 0.08 0.12 0.10 0.09 0.08 0.07 0.07 0.06 0.03 0.05 0.17 0.20 0.18 0.16 0.16 0.12 0.08 0.07 0.07
0.00 0.00 0.00 0.00 0.00 0.00 0.00 0.02 0.05 0.11 0.13 0.15 0.26 0.41 0.57 0.66 0.55 0.53 0.59 0.48 0.30 0.29 0.21 0.14 0.13 0.16 0.13 0.10 0.07 0.06 0.06 0.06 0.07 0.09 0.09 0.10 0.07 0.05 0.03 0.03 0.06 0.08 0.10 0.09 0.08 0.06 0.04 0.05 0.05
0.00 0.00 0.00 0.00 0.01 0.01 0.02 0.04 0.05 0.16 0.18 0.19 0.32 0.48 0.67 0.60 0.49 0.45 0.47 0.36 0.24 0.27 0.22 0.16 0.13 0.14 0.13 0.10 0.07 0.06 0.06 0.05 0.05 0.06 0.06 0.08 0.04 0.02 0.01 0.02 0.03 0.03 0.04 0.05 0.06 0.05 0.03 0.04 0.06
0.00 0.01 0.01 0.01 0.01 0.02 0.02 0.06 0.06 0.18 0.29 0.40 0.48 0.48 0.53 0.51 0.49 0.43 0.43 0.36 0.22 0.20 0.19 0.14 0.09 0.07 0.06 0.07 0.06 0.05 0.05 0.05 0.05 0.04 0.02 0.02 0.01 0.01 0.01 0.01 0.01 0.02 0.03 0.05 0.05 0.04 0.05 0.05 0.05
0.01 0.01 0.02 0.02 0.02 0.01 0.02 0.05 0.08 0.20 0.35 0.49 0.50 0.47 0.44 0.45 0.51 0.56 0.51 0.47 0.29 0.17 0.14 0.11 0.07 0.07 0.05 0.04 0.03 0.03 0.03 0.03 0.04 0.03 0.02 0.01 0.01 0.01 0.01 0.01 0.01 0.01 0.02 0.03 0.03 0.03 0.02 0.02 0.02
0.01 0.01 0.02 0.02 0.02 0.02 0.03 0.04 0.08 0.17 0.28 0.40 0.41 0.38 0.29 0.38 0.54 0.52 0.49 0.35 0.21 0.15 0.11 0.08 0.06 0.05 0.05 0.04 0.02 0.02 0.02 0.01 0.02 0.02 0.01 0.01 0.01 0.01 0.01 0.00 0.00 0.01 0.01 0.01 0.01 0.01 0.01 0.01 0.02
0.01 0.01 0.01 0.02 0.02 0.04 0.07 0.07 0.12 0.23 0.29 0.34 0.38 0.28 0.21 0.29 0.40 0.34 0.24 0.19 0.17 0.17 0.13 0.08 0.05 0.04 0.04 0.02 0.02 0.02 0.02 0.01 0.02 0.02 0.01 0.01 0.01 0.01 0.01 0.01 0.01 0.01 0.01 0.01 0.02 0.02 0.01 0.02 0.02
0.01 0.01 0.01 0.02 0.02 0.04 0.08 0.09 0.12 0.20 0.21 0.26 0.29 0.30 0.28 0.24 0.20 0.17 0.11 0.09 0.11 0.12 0.12 0.05 0.05 0.04 0.03 0.02 0.02 0.01 0.01 0.01 0.01 0.01 0.01 0.01 0.01 0.02 0.01 0.01 0.01 0.01 0.01 0.01 0.01 0.01 0.01 0.01 0.02
0.01 0.01 0.01 0.01 0.02 0.05 0.05 0.07 0.11 0.13 0.13 0.16 0.19 0.24 0.25 0.18 0.09 0.07 0.07 0.07 0.05 0.04 0.04 0.03 0.03 0.03 0.02 0.02 0.01 0.01 0.00 0.00 0.00 0.00 0.00 0.00 0.01 0.01 0.01 0.01 0.01 0.01 0.01 0.01 0.01 0.01 0.01 0.01 0.01
0.01 0.01 0.00 0.01 0.03 0.06 0.04 0.08 0.06 0.08 0.10 0.13 0.17 0.16 0.12 0.12 0.06 0.05 0.05 0.04 0.03 0.03 0.03 0.03 0.02 0.02 0.01 0.01 0.01 0.01 0.00 0.00 0.00 0.00 0.00 0.00 0.00 0.00 0.00 0.00 0.00 0.00 0.01 0.01 0.01 0.00 0.01 0.00 0.00
0.01 0.01 0.01 0.02 0.04 0.04 0.05 0.05 0.04 0.06 0.07 0.09 0.10 0.09 0.07 0.07 0.05 0.03 0.02 0.01 0.01 0.02 0.02 0.03 0.02 0.03 0.02 0.01 0.01 0.00 0.00 0.00 0.00 0.01 0.00 0.00 0.00 0.00 0.00 0.00 0.00 0.00 0.00 0.00 0.00 0.00 0.00 0.00 0.00
0.01 0.01 0.02 0.04 0.06 0.06 0.05 0.05 0.04 0.03 0.04 0.05 0.05 0.06 0.05 0.05 0.05 0.02 0.02 0.01 0.01 0.01 0.02 0.03 0.02 0.02 0.02 0.01 0.01 0.00 0.00 0.00 0.00 0.00 0.00 0.00 0.00 0.00 0.00 0.00 0.00 0.00 0.00 0.00 0.00 0.00 0.00 0.00 0.00
0.01 0.01 0.04 0.06 0.09 0.06 0.03 0.03 0.03 0.02 0.02 0.03 0.04 0.04 0.03 0.03 0.03 0.02 0.02 0.01 0.01 0.01 0.01 0.02 0.02 0.01 0.01 0.01 0.01 0.00 0.00 0.00 0.00 0.00 0.00 0.00 0.00 0.00 0.00 0.00 0.00 0.00 0.00 0.00 0.00 0.00 0.00 0.00 0.00
0.01 0.02 0.04 0.05 0.08 0.10 0.06 0.03 0.02 0.02 0.02 0.02 0.03 0.02 0.02 0.02 0.01 0.01 0.01 0.01 0.00 0.00 0.00 0.02 0.02 0.01 0.01 0.01 0.00 0.00 0.00 0.00 0.00 0.00 0.00 0.00 0.00 0.00 0.00 0.00 0.00 0.00 0.00 0.00 0.00 0.00 0.00 0.00 0.00
0.00 0.01 0.02 0.03 0.06 0.11 0.13 0.08 0.05 0.02 0.01 0.01 0.01 0.01 0.01 0.01 0.01 0.01 0.01 0.00 0.00 0.00 0.01 0.03 0.04 0.01 0.00 0.00 0.00 0.00 0.00 0.00 0.00 0.00 0.00 0.00 0.00 0.00 0.00 0.00 0.00 0.00 0.00 0.00 0.00 0.00 0.00 0.00 0.00
0.01 0.01 0.01 0.03 0.06 0.11 0.13 0.12 0.05 0.01 0.01 0.00 0.00 0.00 0.00 0.00 0.00 0.00 0.00 0.00 0.00 0.00 0.00 0.01 0.01 0.00 0.00 0.00 0.00 0.00 0.00 0.00 0.00 0.00 0.00 0.00 0.00 0.00 0.00 0.00 0.00 0.00 0.00 0.00 0.00 0.00 0.00 0.00 0.00
0.02 0.01 0.02 0.02 0.03 0.05 0.07 0.05 0.03 0.02 0.01 0.01 0.00 0.00 0.00 0.00 0.00 0.00 0.00 0.00 0.00 0.00 0.00 0.00 0.00 0.00 0.00 0.00 0.00 0.00 0.00 0.00 0.00 0.00 0.00 0.00 0.00 0.00 0.00 0.00 0.00 0.00 0.00 0.00 0.00 0.00 0.00 0.00 0.00
0.02 0.02 0.02 0.03 0.02 0.03 0.04 0.02 0.01 0.01 0.00 0.00 0.00 0.00 0.00 0.00 0.00 0.00 0.00 0.00 0.00 0.00 0.00 0.00 0.00 0.00 0.00 0.00 0.00 0.00 0.00 0.00 0.00 0.00 0.00 0.00 0.00 0.00 0.00 0.00 0.00 0.00 0.00 0.00 0.00 0.00 0.00 0.00 0.00
MSLP
1012.22 1013.35 1014.54 1015.58 1016.31 1016.62 1016.46 1015.87 1014.97 1013.93 1012.94 1012.13 1011.61 1011.40 1011.47 1011.72 1012.04 1012.33 1012.51 1012.56 1012.51 1012.40 1012.31 1012.32 1012.45 1012.72 1013.09 1013.51 1013.92 1014.28 1014.57 1014.78 1014.94 1015.10 1015.28 1015.51 1015.78 1016.07 1016.35 1016.60 1016.78 1016.90 1016.96 1016.99 1017.01 1017.05 1017.10 1017.17 1017.24
1012.74 1014.02 1015.22 1016.15 1016.64 1016.62 1016.09 1015.15 1013.96 1012.73 1011.64 1010.85 1010.43 1010.37 1010.60 1011.02 1011.49 1011.89 1012.17 1012.29 1012.30 1012.25 1012.22 1012.29 1012.47 1012.78 1013.17 1013.61 1014.03 1014.40 1014.69 1014.92 1015.10 1015.28 1015.48 1015.71 1015.96 1016.23 1016.47 1016.68 1016.83 1016.93 1017.00 1017.04 1017.09 1017.16 1017.24 1017.33 1017.40
1013.28 1014.63 1015.77 1016.51 1016.73 1016.38 1015.52 1014.29 1012.89 1011.55 1010.46 1009.75 1009.46 1009.57 1009.97 1010.53 1011.12 1011.61 1011.95 1012.12 1012.17 1012.18 1012.20 1012.31 1012.53 1012.87 1013.28 1013.73 1014.15 1014.53 1014.83 1015.08 1015.28 1015.48 1015.68 1015.90 1016.13 1016.35 1016.55 1016.71 1016.82 1016.91 1016.97 1017.04 1017.12 1017.22 1017.35 1017.46 1017.55
1013.77 1015.10 1016.11 1016.63 1016.58 1015.94 1014.81 1013.39 1011.89 1010.54 1009.53 1008.95 1008.83 1009.09 1009.64 1010.31 1010.98 1011.51 1011.88 1012.09 1012.17 1012.21 1012.27 1012.41 1012.66 1013.01 1013.43 1013.87 1014.28 1014.65 1014.97 1015.22 1015.45 1015.65 1015.86 1016.06 1016.26 1016.44 1016.59 1016.71 1016.79 1016.85 1016.92 1017.01 1017.13 1017.28 1017.44 1017.59 1017.71
1014.16 1015.38 1016.20 1016.49 1016.18 1015.33 1014.05 1012.56 1011.07 1009.82 1008.95 1008.55 1008.59 1009.00 1009.64 1010.37 1011.06 1011.61 1011.98 1012.19 1012.29 1012.35 1012.44 1012.61 1012.87 1013.21 1013.61 1014.01 1014.41 1014.75 1015.06 1015.32 1015.56 1015.79 1016.00 1016.20 1016.37 1016.52 1016.63 1016.70 1016.76 1016.81 1016.89 1017.00 1017.15 1017.33 1017.53 1017.71 1017.85
1014.38 1015.42 1016.01 1016.08 1015.58 1014.60 1013.30 1011.86 1010.51 1009.45 1008.79 1008.57 1008.76 1009.27 1009.96 1010.69 1011.34 1011.85 1012.20 1012.40 1012.52 1012.61 1012.72 1012.90 1013.15 1013.46 1013.81 1014.17 1014.51 1014.82 1015.10 1015.37 1015.62 1015.86 1016.08 1016.29 1016.46 1016.58 1016.66 1016.71 1016.75 1016.79 1016.88 1017.01 1017.18 1017.39 1017.61 1017.80 1017.96
1014.40 1015.20 1015.56 1015.43 1014.82 1013.83 1012.61 1011.35 1010.24 1009.43 1009.01 1008.98 1009.29 1009.84 1010.51 1011.18 1011.76 1012.20 1012.50 1012.69 1012.82 1012.93 1013.07 1013.26 1013.49 1013.76 1014.04 1014.32 1014.58 1014.84 1015.09 1015.35 1015.61 1015.87 1016.12 1016.34 1016.51 1016.63 1016.70 1016.73 1016.76 1016.81 1016.90 1017.04 1017.22 1017.44 1017.67 1017.87 1018.03
1014.20 1014.74 1014.88 1014.61 1013.98 1013.07 1012.05 1011.06 1010.26 1009.74 1009.56 1009.69 1010.07 1010.61 1011.20 1011.75 1012.22 1012.57 1012.82 1013.00 1013.14 1013.29 1013.46 1013.65 1013.86 1014.07 1014.28 1014.47 1014.65 1014.84 1015.05 1015.29 1015.56 1015.84 1016.11 1016.35 1016.54 1016.66 1016.73 1016.76 1016.79 1016.83 1016.93 1017.07 1017.27 1017.49 1017.71 1017.90 1018.05
1013.79 1014.09 1014.06 1013.72 1013.14 1012.40 1011.65 1010.99 1010.52 1010.31 1010.34 1010.59 1010.99 1011.45 1011.92 1012.32 1012.65 1012.90 1013.10 1013.27 1013.45 1013.63 1013.84 1014.04 1014.23 1014.38 1014.51 1014.62 1014.72 1014.84 1015.01 1015.24 1015.50 1015.80 1016.09 1016.35 1016.55 1016.68 1016.75 1016.79 1016.82 1016.87 1016.97 1017.11 1017.31 1017.52 1017.72 1017.90 1018.03
1013.23 1013.33 1013.19 1012.86 1012.39 1011.89 1011.45 1011.14 1011.00 1011.05 1011.26 1011.58 1011.93 1012.28 1012.58 1012.82 1013.00 1013.15 1013.30 1013.48 1013.69 1013.92 1014.16 1014.38 1014.56 1014.67 1014.73 1014.76 1014.79 1014.86 1014.99 1015.20 1015.46 1015.77 1016.07 1016.34 1016.55 1016.69 1016.77 1016.81 1016.84 1016.90 1017.01 1017.16 1017.35 1017.55 1017.75 1017.90 1018.01
1012.61 1012.58 1012.40 1012.12 1011.82 1011.58 1011.46 1011.47 1011.63 1011.89 1012.22 1012.54 1012.81 1013.01 1013.13 1013.19 1013.23 1013.29 1013.41 1013.59 1013.84 1014.12 1014.41 1014.65 1014.81 1014.90 1014.92 1014.89 1014.88 1014.91 1015.01 1015.20 1015.46 1015.76 1016.07 1016.33 1016.54 1016.68 1016.76 1016.81 1016.86 1016.94 1017.06 1017.22 1017.41 1017.61 1017.79 1017.93 1018.01
1012.03 1011.95 1011.77 1011.60 1011.50 1011.51 1011.67 1011.97 1012.34 1012.76 1013.13 1013.41 1013.57 1013.60 1013.54 1013.44 1013.36 1013.34 1013.43 1013.63 1013.91 1014.23 1014.55 1014.81 1014.98 1015.05 1015.04 1014.99 1014.95 1014.96 1015.05 1015.23 1015.48 1015.78 1016.07 1016.32 1016.52 1016.66 1016.75 1016.81 1016.88 1016.98 1017.13 1017.31 1017.52 1017.72 1017.89 1018.01 1018.07
1011.62 1011.52 1011.40 1011.36 1011.44 1011.68 1012.07 1012.56 1013.09 1013.58 1013.94 1014.14 1014.17 1014.05 1013.83 1013.59 1013.41 1013.34 1013.41 1013.61 1013.91 1014.26 1014.59 1014.86 1015.03 1015.10 1015.09 1015.04 1015.01 1015.02 1015.12 1015.29 1015.53 1015.80 1016.07 1016.30 1016.48 1016.61 1016.71 1016.80 1016.90 1017.04 1017.22 1017.43 1017.66 1017.87 1018.04 1018.15 1018.18
1011.46 1011.37 1011.33 1011.40 1011.63 1012.04 1012.59 1013.20 1013.80 1014.29 1014.60 1014.70 1014.60 1014.35 1014.02 1013.69 1013.45 1013.34 1013.40 1013.59 1013.89 1014.23 1014.56 1014.82 1014.98 1015.05 1015.06 1015.04 1015.03 1015.07 1015.17 1015.35 1015.57 1015.81 1016.05 1016.25 1016.41 1016.54 1016.65 1016.77 1016.92 1017.10 1017.33 1017.58 1017.84 1018.06 1018.23 1018.33 1018.34
1011.56 1011.50 1011.51 1011.67 1012.01 1012.53 1013.16 1013.82 1014.42 1014.86 1015.09 1015.10 1014.90 1014.56 1014.16 1013.79 1013.52 1013.40 1013.44 1013.62 1013.89 1014.19 1014.48 1014.71 1014.86 1014.93 1014.96 1014.98 1015.01 1015.09 1015.22 1015.40 1015.60 1015.81 1016.00 1016.17 1016.31 1016.43 1016.56 1016.72 1016.91 1017.16 1017.44 1017.73 1018.01 1018.25 1018.42 1018.50 1018.50
1011.88 1011.83 1011.88 1012.10 1012.50 1013.06 1013.71 1014.36 1014.91 1015.27 1015.42 1015.34 1015.07 1014.69 1014.28 1013.91 1013.65 1013.54 1013.57 1013.72 1013.94 1014.18 1014.40 1014.58 1014.70 1014.78 1014.84 1014.90 1014.98 1015.10 1015.26 1015.44 1015.62 1015.79 1015.94 1016.06 1016.17 1016.29 1016.44 1016.63 1016.88 1017.18 1017.51 1017.84 1018.15 1018.39 1018.56 1018.64 1018.62
1012.31 1012.27 1012.35 1012.60 1013.03 1013.59 1014.21 1014.80 1015.26 1015.54 1015.59 1015.45 1015.15 1014.77 1014.39 1014.06 1013.85 1013.76 1013.79 1013.90 1014.05 1014.22 1014.36 1014.47 1014.56 1014.63 1014.71 1014.82 1014.96 1015.13 1015.31 1015.49 1015.65 1015.77 1015.86 1015.94 1016.02 1016.13 1016.29 1016.52 1016.81 1017.16 1017.53 1017.89 1018.21 1018.46 1018.63 1018.70 1018.67
1012.76 1012.72 1012.82 1013.10 1013.54 1014.08 1014.65 1015.15 1015.51 1015.68 1015.66 1015.46 1015.16 1014.81 1014.49 1014.24 1014.09 1014.04 1014.07 1014.14 1014.23 1014.31 1014.36 1014.41 1014.46 1014.53 1014.64 1014.80 1014.99 1015.21 1015.41 1015.58 1015.70 1015.78 1015.81 1015.83 1015.87 1015.97 1016.14 1016.39 1016.71 1017.09 1017.48 1017.86 1018.18 1018.43 1018.59 1018.66 1018.65
1013.11 1013.11 1013.26 1013.57 1014.02 1014.54 1015.05 1015.46 1015.71 1015.77 1015.66 1015.42 1015.12 1014.81 1014.56 1014.39 1014.32 1014.32 1014.36 1014.40 1014.43 1014.43 1014.41 1014.40 1014.42 1014.49 1014.64 1014.85 1015.10 1015.35 1015.58 1015.74 1015.83 1015.85 1015.82 1015.78 1015.78 1015.84 1016.00 1016.26 1016.59 1016.98 1017.38 1017.76 1018.08 1018.32 1018.48 1018.55 1018.55
1013.33 1013.40 1013.63 1014.02 1014.52 1015.03 1015.48 1015.80 1015.93 1015.87 1015.66 1015.36 1015.04 1014.77 1014.57 1014.49 1014.48 1014.53 1014.59 1014.62 1014.60 1014.55 1014.47 1014.42 1014.43 1014.52 1014.71 1014.97 1015.27 1015.57 1015.82 1015.98 1016.03 1016.00 1015.91 1015.82 1015.76 1015.79 1015.93 1016.17 1016.49 1016.87 1017.26 1017.61 1017.92 1018.15 1018.30 1018.39 1018.42
1013.41 1013.62 1014.00 1014.51 1015.07 1015.61 1016.01 1016.23 1016.23 1016.04 1015.71 1015.31 1014.95 1014.67 1014.51 1014.47 1014.52 1014.62 1014.70 1014.73 1014.70 1014.62 1014.52 1014.46 1014.47 1014.60 1014.83 1015.15 1015.51 1015.85 1016.12 1016.28 1016.31 1016.24 1016.10 1015.96 1015.85 1015.84 1015.93 1016.15 1016.44 1016.79 1017.14 1017.47 1017.74 1017.95 1018.10 1018.21 1018.27
1013.43 1013.84 1014.41 1015.08 1015.75 1016.31 1016.68 1016.80 1016.66 1016.30 1015.81 1015.29 1014.84 1014.51 1014.34 1014.33 1014.41 1014.55 1014.66 1014.71 1014.69 1014.61 1014.52 1014.47 1014.51 1014.68 1014.96 1015.34 1015.76 1016.14 1016.44 1016.61 1016.63 1016.54 1016.37 1016.18 1016.04 1015.98 1016.04 1016.21 1016.46 1016.77 1017.07 1017.36 1017.59 1017.78 1017.92 1018.03 1018.13
1013.49 1014.12 1014.91 1015.76 1016.54 1017.14 1017.46 1017.47 1017.17 1016.63 1015.96 1015.28 1014.70 1014.29 1014.08 1014.05 1014.16 1014.32 1014.47 1014.56 1014.57 1014.52 1014.46 1014.44 1014.53 1014.74 1015.07 1015.50 1015.96 1016.39 1016.71 1016.90 1016.93 1016.84 1016.66 1016.45 1016.29 1016.20 1016.22 1016.34 1016.55 1016.80 1017.05 1017.28 1017.47 1017.62 1017.75 1017.86 1017.99
1013.63 1014.50 1015.51 1016.52 1017.39 1018.01 1018.28 1018.16 1017.69 1016.95 1016.08 1015.23 1014.50 1013.99 1013.72 1013.68 1013.79 1013.99 1014.18 1014.31 1014.37 1014.37 1014.35 1014.38 1014.50 1014.75 1015.12 1015.58 1016.08 1016.53 1016.89 1017.10 1017.16 1017.08 1016.91 1016.72 1016.54 1016.44 1016.43 1016.52 1016.68 1016.87 1017.06 1017.24 1017.37 1017.48 1017.58 1017.68 1017.81
1013.89 1014.95 1016.12 1017.25 1018.18 1018.78 1018.96 1018.71 1018.07 1017.14 1016.10 1015.08 1014.23 1013.62 1013.30 1013.23 1013.36 1013.59 1013.83 1014.02 1014.14 1014.20 1014.23 1014.30 1014.45 1014.72 1015.10 1015.57 1016.08 1016.55 1016.92 1017.16 1017.25 1017.21 1017.08 1016.91 1016.75 1016.65 1016.63 1016.69 1016.80 1016.94 1017.08 1017.19 1017.27 1017.33 1017.38 1017.46 1017.57
1014.20 1015.39 1016.65 1017.82 1018.74 1019.27 1019.35 1018.95 1018.16 1017.08 1015.89 1014.76 1013.82 1013.17 1012.82 1012.76 1012.92 1013.19 1013.49 1013.75 1013.94 1014.05 1014.13 1014.22 1014.39 1014.65 1015.02 1015.48 1015.96 1016.42 1016.80 1017.06 1017.18 1017.18 1017.10 1016.97 1016.85 1016.77 1016.75 1016.79 1016.87 1016.96 1017.05 1017.10 1017.13 1017.14 1017.14 1017.17 1017.24
1014.45 1015.67 1016.93 1018.06 1018.89 1019.31 1019.26 1018.74 1017.83 1016.65 1015.39 1014.22 1013.27 1012.62 1012.30 1012.29 1012.50 1012.85 1013.22 1013.55 1013.79 1013.96 1014.07 1014.18 1014.34 1014.57 1014.90 1015.31 1015.75 1016.17 1016.54 1016.80 1016.95 1017.00 1016.96 1016.89 1016.81 1016.76 1016.75 1016.79 1016.84 1016.90 1016.94 1016.95 1016.93 1016.88 1016.84 1016.81 1016.83
1014.53 1015.70 1016.85 1017.84 1018.53 1018.80 1018.61 1017.99 1017.01 1015.81 1014.56 1013.44 1012.55 1011.98 1011.76 1011.83 1012.14 1012.56 1013.01 1013.41 1013.71 1013.92 1014.06 1014.17 1014.30 1014.50 1014.76 1015.10 1015.47 1015.84 1016.17 1016.42 1016.59 1016.67 1016.68 1016.66 1016.63 1016.62 1016.63 1016.66 1016.70 1016.73 1016.74 1016.71 1016.64 1016.56 1016.47 1016.40 1016.37
1014.35 1015.37 1016.35 1017.14 1017.63 1017.73 1017.41 1016.72 1015.73 1014.58 1013.44 1012.44 1011.70 1011.28 1011.19 1011.39 1011.80 1012.32 1012.84 1013.31 1013.67 1013.91 1014.07 1014.18 1014.28 1014.42 1014.62 1014.87 1015.17 1015.47 1015.75 1015.98 1016.14 1016.24 1016.29 1016.31 1016.33 1016.34 1016.37 1016.41 1016.44 1016.46 1016.44 1016.38 1016.29 1016.18 1016.06 1015.96 1015.89
1013.92 1014.74 1015.49 1016.04 1016.31 1016.23 1015.81 1015.08 1014.14 1013.10 1012.12 1011.31 1010.77 1010.54 1010.61 1010.95 1011.46 1012.06 1012.66 1013.17 1013.57 1013.85 1014.02 1014.13 1014.21 1014.31 1014.45 1014.64 1014.86 1015.09 1015.32 1015.52 1015.67 1015.78 1015.86 1015.91 1015.95 1015.99 1016.03 1016.07 1016.10 1016.10 1016.07 1016.00 1015.90 1015.77 1015.64 1015.52 1015.43
Thickness
5824 5820 5817 5805 5784 5767 5764 5782 5796 5800 5806 5815 5821 5820 5816 5810 5802 5792 5816 5822 5817 5811 5806 5802 5800 5798 5795 5793 5791 5789 5787 5784 5782 5780 5778 5776 5773 5771 5769 5768 5766 5764 5762 5760 5759 5757 5756 5755 5753
5823 5818 5808 5791 5770 5753 5765 5789 5794 5803 5813 5819 5817 5817 5814 5811 5817 5813 5814 5816 5815 5809 5804 5801 5799 5797 5794 5792 5790 5788 5785 5783 5781 5779 5777 5774 5772 5770 5768 5766 5764 5763 5761 5759 5757 5756 5755 5753 5752
5822 5818 5795 5778 5765 5760 5773 5796 5802 5810 5818 5816 5810 5814 5813 5810 5816 5813 5814 5813 5810 5805 5802 5800 5797 5794 5792 5790 5788 5786 5784 5781 5779 5777 5775 5772 5770 5768 5766 5764 5763 5761 5759 5758 5756 5754 5753 5752 5750
5816 5802 5788 5771 5765 5781 5792 5805 5813 5809 5811 5814 5811 5806 5812 5820 5819 5815 5813 5810 5805 5802 5799 5797 5794 5791 5789 5787 5786 5784 5782 5780 5777 5775 5773 5770 5768 5766 5764 5763 5761 5759 5758 5756 5754 5753 5751 5750 5748
5810 5789 5772 5763 5773 5794 5809 5817 5817 5807 5804 5806 5807 5797 5797 5812 5817 5813 5810 5805 5801 5798 5795 5793 5791 5789 5787 5785 5783 5782 5780 5777 5775 5773 5771 5769 5767 5764 5762 5761 5759 5757 5756 5754 5752 5750 5749 5748 5747
5792 5780 5760 5757 5777 5798 5809 5816 5809 5804 5801 5803 5800 5791 5787 5804 5806 5804 5805 5800 5798 5795 5793 5790 5788 5787 5785 5783 5781 5780 5778 5775 5773 5771 5769 5767 5765 5762 5760 5759 5757 5755 5753 5751 5750 5748 5747 5746 5744
5783 5772 5763 5769 5776 5788 5804 5813 5804 5801 5796 5796 5800 5785 5782 5793 5799 5800 5798 5795 5792 5789 5788 5787 5785 5784 5782 5780 5779 5777 5775 5772 5770 5768 5766 5764 5762 5760 5758 5756 5754 5752 5750 5748 5747 5746 5744 5743 5742
5795 5774 5765 5767 5773 5779 5800 5805 5804 5799 5793 5799 5798 5783 5778 5789 5796 5794 5791 5788 5785 5783 5783 5783 5782 5780 5779 5777 5775 5774 5772 5769 5767 5764 5762 5761 5759 5757 5755 5752 5751 5749 5747 5745 5744 5742 5742 5741 5740
5801 5765 5754 5766 5774 5781 5798 5796 5796 5801 5793 5791 5791 5789 5788 5791 5789 5783 5780 5778 5777 5776 5777 5778 5778 5776 5774 5773 5772 5771 5768 5766 5764 5761 5759 5757 5755 5754 5752 5749 5747 5745 5744 5742 5740 5739 5739 5738 5737
5786 5757 5768 5787 5791 5789 5793 5791 5789 5783 5777 5775 5779 5783 5782 5782 5780 5773 5771 5770 5769 5770 5773 5775 5774 5772 5770 5770 5769 5767 5766 5763 5760 5758 5757 5754 5752 5750 5749 5746 5744 5742 5741 5740 5738 5736 5736 5735 5734
5788 5774 5787 5794 5799 5797 5788 5784 5786 5774 5762 5769 5770 5770 5770 5772 5771 5767 5766 5769 5770 5771 5772 5773 5772 5771 5769 5768 5766 5764 5763 5760 5757 5755 5753 5751 5748 5747 5745 5743 5741 5740 5738 5737 5735 5733 5733 5732 5732
5791 5792 5796 5794 5799 5794 5786 5780 5772 5767 5763 5773 5772 5768 5764 5760 5763 5765 5762 5765 5768 5768 5769 5771 5771 5769 5767 5765 5764 5762 5760 5757 5754 5752 5749 5747 5745 5744 5742 5740 5739 5737 5736 5734 5733 5731 5731 5730 5729
5791 5790 5796 5796 5794 5788 5783 5772 5765 5757 5764 5767 5764 5762 5758 5757 5757 5760 5761 5764 5765 5766 5767 5768 5769 5767 5764 5762 5762 5760 5757 5754 5752 5749 5747 5745 5742 5740 5739 5737 5735 5734 5733 5732 5731 5729 5728 5728 5726
5793 5792 5791 5791 5789 5785 5773 5762 5757 5748 5756 5754 5751 5748 5750 5750 5751 5752 5755 5756 5760 5762 5763 5765 5765 5764 5761 5759 5758 5757 5754 5751 5748 5746 5745 5743 5740 5738 5736 5734 5733 5732 5731 5730 5729 5727 5725 5724 5722
5797 5784 5781 5783 5783 5778 5770 5749 5744 5745 5747 5744 5744 5743 5742 5744 5745 5747 5750 5752 5757 5759 5760 5760 5761 5760 5758 5756 5755 5753 5751 5748 5745 5743 5742 5740 5738 5736 5734 5731 5730 5729 5729 5728 5726 5724 5723 5721 5719
5784 5768 5757 5772 5776 5774 5757 5728 5738 5743 5741 5737 5739 5741 5738 5738 5741 5747 5749 5753 5756 5756 5756 5757 5759 5757 5755 5753 5752 5750 5747 5745 5743 5741 5739 5737 5735 5733 5731 5728 5727 5726 5725 5724 5722 5720 5717 5715 5714
5759 5747 5749 5760 5770 5766 5749 5728 5736 5740 5738 5734 5734 5734 5734 5735 5740 5746 5750 5753 5753 5754 5754 5754 5754 5753 5752 5751 5748 5746 5743 5741 5740 5738 5736 5734 5732 5730 5728 5726 5724 5723 5721 5719 5718 5715 5713 5710 5710
5745 5747 5749 5748 5760 5757 5740 5730 5734 5737 5737 5731 5731 5731 5732 5735 5739 5745 5749 5750 5750 5751 5752 5752 5751 5750 5749 5747 5744 5741 5739 5738 5736 5735 5733 5731 5729 5727 5725 5723 5721 5719 5717 5714 5712 5710 5709 5707 5706
5767 5757 5748 5752 5763 5752 5737 5729 5729 5731 5732 5729 5727 5727 5729 5735 5740 5744 5747 5748 5748 5748 5747 5748 5747 5746 5745 5742 5738 5735 5733 5733 5733 5732 5730 5729 5727 5724 5722 5719 5717 5715 5712 5709 5707 5705 5703 5701 5701
5769 5755 5749 5753 5761 5749 5734 5727 5728 5729 5728 5729 5729 5729 5731 5733 5737 5741 5743 5745 5745 5745 5745 5744 5743 5743 5742 5740 5737 5735 5733 5731 5730 5729 5727 5725 5723 5721 5718 5715 5712 5710 5707 5704 5702 5700 5697 5695 5695
5765 5757 5753 5750 5752 5747 5735 5722 5723 5729 5729 5730 5734 5735 5734 5736 5737 5739 5741 5742 5743 5742 5742 5743 5741 5740 5739 5738 5735 5733 5730 5726 5723 5722 5721 5721 5720 5718 5715 5712 5709 5706 5703 5700 5698 5695 5692 5688 5688
5757 5771 5765 5754 5736 5720 5727 5704 5719 5724 5724 5728 5732 5735 5736 5738 5740 5741 5741 5741 5742 5743 5743 5741 5740 5738 5737 5735 5732 5728 5723 5718 5717 5717 5717 5717 5715 5713 5711 5708 5706 5702 5699 5696 5694 5691 5688 5684 5680
5766 5774 5761 5748 5732 5718 5720 5708 5713 5724 5721 5727 5733 5738 5740 5741 5743 5744 5744 5744 5745 5744 5743 5740 5738 5736 5735 5734 5731 5726 5720 5717 5716 5715 5713 5712 5711 5709 5707 5704 5701 5698 5695 5692 5689 5686 5684 5680 5677
5778 5762 5748 5734 5722 5706 5716 5710 5709 5720 5730 5736 5739 5743 5744 5745 5746 5746 5747 5746 5745 5744 5742 5739 5737 5734 5733 5731 5728 5723 5719 5715 5713 5710 5708 5706 5705 5704 5702 5700 5696 5693 5690 5687 5684 5681 5679 5676 5673
5770 5739 5715 5709 5699 5701 5720 5716 5718 5742 5749 5749 5748 5748 5749 5750 5748 5747 5745 5744 5743 5742 5741 5738 5735 5732 5731 5728 5725 5722 5718 5715 5711 5708 5705 5702 5700 5698 5697 5695 5692 5689 5686 5683 5680 5676 5673 5671 5668
5762 5746 5716 5702 5697 5701 5717 5715 5734 5759 5761 5761 5759 5757 5755 5752 5752 5751 5749 5748 5746 5744 5741 5737 5733 5730 5728 5726 5722 5720 5717 5713 5710 5707 5704 5701 5698 5695 5693 5691 5688 5685 5681 5678 5675 5671 5668 5666 5662
5762 5749 5746 5719 5707 5696 5706 5722 5745 5763 5760 5759 5758 5757 5755 5755 5755 5754 5752 5750 5748 5744 5741 5738 5733 5730 5727 5725 5721 5718 5715 5712 5709 5706 5703 5699 5696 5694 5690 5687 5684 5680 5677 5673 5670 5666 5663 5660 5656
5775 5759 5734 5715 5698 5692 5702 5711 5723 5746 5751 5756 5756 5757 5757 5757 5756 5755 5753 5751 5749 5746 5742 5738 5735 5731 5728 5725 5721 5718 5714 5712 5709 5705 5701 5698 5694 5691 5687 5683 5679 5676 5672 5668 5664 5660 5657 5653 5650
5763 5753 5736 5719 5712 5696 5691 5710 5753 5755 5758 5758 5760 5762 5761 5759 5758 5756 5754 5752 5749 5745 5741 5737 5734 5730 5727 5724 5720 5717 5714 5711 5707 5703 5700 5696 5692 5688 5684 5680 5676 5671 5668 5664 5659 5655 5651 5647 5643
5768 5757 5740 5720 5713 5710 5703 5720 5774 5770 5769 5766 5765 5767 5766 5764 5761 5758 5754 5750 5746 5743 5740 5737 5733 5730 5727 5724 5720 5716 5713 5709 5705 5701 5698 5694 5690 5686 5682 5677 5673 5668 5664 5660 5654 5650 5646 5641 5637